WN8IZV Weather Reports


Display with metric or nautical units.
time (UTC)temp
F
wind
direction
speed
MPH
gust
MPH
rain 1hr
in
rain 24hr
in
rain mn
in
humidity
%
barometer
mb
20260902021531 82 317 0.0 0.0 0.00 0.00 0.00 78 1013.3
20260902020029 82 224 0.0 2.0 0.00 0.00 0.00 78 1013.3
20260902014529 83 274 0.0 2.0 0.00 0.00 0.00 78 1013.3
20260902013027 83 297 0.0 2.0 0.00 0.00 0.00 78 1013.3
20260902011532 83 276 0.0 2.0 0.00 0.00 0.00 78 1013.1
20260902010022 84 158 0.0 3.0 0.00 0.00 0.00 78 1013.0
20260902004521 84 278 0.0 1.0 0.00 0.00 0.00 78 1012.8
20260902003025 84 100 0.0 6.0 0.00 0.00 0.00 78 1012.5
20260902001516 85 157 0.0 3.0 0.00 0.00 0.00 78 1012.5
20260902000013 86 142 0.0 1.0 0.00 0.00 0.00 79 1012.4
20260901234510 86 218 1.0 5.0 0.00 0.00 0.00 79 1012.4
20260901233007 88 202 0.0 6.0 0.00 0.00 0.00 79 1012.4
20260901231506 90 160 1.0 8.0 0.00 0.00 0.00 79 1012.3
20260901230003 91 223 0.0 2.0 0.00 0.00 0.00 80 1012.3
20260901224501 91 157 1.0 4.0 0.00 0.00 0.00 80 1012.3
20260901223107 92 278 0.0 4.0 0.00 0.00 0.00 80 1012.3
20260901221557 93 220 2.0 6.0 0.00 0.00 0.00 80 1012.2
20260901220123 93 285 0.0 5.0 0.00 0.00 0.00 81 1012.2
20260901214553 93 352 2.0 6.0 0.00 0.00 0.00 81 1012.1
20260901213052 95 259 2.0 4.0 0.00 0.00 0.00 81 1012.1
20260901211549 94 231 0.0 3.0 0.00 0.00 0.00 81 1012.2
20260901210046 95 183 2.0 6.0 0.00 0.00 0.00 81 1012.4
20260901204543 95 141 0.0 5.0 0.00 0.00 0.00 82 1012.3
20260901203038 96 119 1.0 5.0 0.00 0.00 0.00 82 1012.2
20260901201529 96 277 1.0 6.0 0.00 0.00 0.00 82 1012.2
20260901200024 95 227 1.0 3.0 0.00 0.00 0.00 82 1012.3
20260901194518 96 295 0.0 7.0 0.00 0.00 0.00 83 1012.4
20260901193013 97 324 1.0 3.0 0.00 0.00 0.00 83 1012.6
20260901191505 96 130 1.0 4.0 0.00 0.00 0.00 83 1012.6
20260901190059 95 303 1.0 6.0 0.00 0.00 0.00 83 1012.6
20260901184613 95 288 0.0 3.0 0.00 0.00 0.00 83 1012.6
20260901183052 94 159 0.0 3.0 0.00 0.00 0.00 84 1012.5
20260901181552 93 324 1.0 5.0 0.00 0.00 0.00 84 1012.6
20260901180032 94 214 1.0 5.0 0.00 0.00 0.00 84 1012.5
20260901174546 94 325 1.0 5.0 0.00 0.01 0.00 84 1012.6
20260901173020 93 255 0.0 5.0 0.00 0.01 0.00 84 1012.8
20260901171516 93 212 0.0 2.0 0.00 0.01 0.00 84 1013.2
20260901170009 91 202 1.0 4.0 0.00 0.01 0.00 84 1013.3
20260901164608 90 132 2.0 5.0 0.00 0.01 0.00 84 1013.6
20260901163055 90 285 0.0 3.0 0.00 0.01 0.00 84 1013.9
20260901161604 89 325 1.0 5.0 0.00 0.01 0.00 84 1013.9
20260901160104 89 283 0.0 2.0 0.00 0.01 0.00 84 1014.0
20260901154539 87 148 0.0 4.0 0.00 0.01 0.00 83 1014.0
20260901153035 85 326 0.0 4.0 0.00 0.01 0.00 83 1014.1
20260901151531 84 259 0.0 3.0 0.00 0.01 0.00 83 1014.2
20260901150029 84 198 0.0 3.0 0.00 0.01 0.00 83 1014.3
20260901144526 85 136 0.0 0.0 0.00 0.01 0.00 83 1014.3
20260901143021 83 260 0.0 1.0 0.00 0.01 0.00 82 1014.3
20260901141518 82 281 0.0 3.0 0.00 0.01 0.00 82 1014.3
20260901140013 81 248 0.0 2.0 0.00 0.01 0.00 82 1014.2
20260901134508 80 302 0.0 2.0 0.00 0.01 0.00 82 1014.1
20260901133005 79 351 1.0 3.0 0.00 0.01 0.00 82 1014.1
20260901131601 78 287 0.0 2.0 0.00 0.01 0.00 81 1014.1
20260901130054 76 288 0.0 0.0 0.00 0.01 0.00 81 1014.2
20260901124551 74 344 0.0 2.0 0.00 0.01 0.00 81 1014.3
20260901123101 73 120 0.0 1.0 0.00 0.01 0.00 81 1014.3
20260901121547 73 227 0.0 0.0 0.00 0.01 0.00 80 1014.2
20260901120050 72 227 0.0 0.0 0.00 0.01 0.00 80 1014.1
20260901114546 71 202 0.0 0.0 0.00 0.01 0.00 80 1014.0
20260901113041 71 202 0.0 0.0 0.00 0.01 0.00 80 1014.0
20260901111537 71 203 0.0 0.0 0.00 0.01 0.00 80 1013.9
20260901110031 71 202 0.0 0.0 0.00 0.01 0.00 80 1013.9
20260901104529 72 203 0.0 0.0 0.00 0.01 0.00 80 1013.7
20260901103024 72 219 0.0 0.0 0.00 0.01 0.00 80 1013.6
20260901101523 72 77 0.0 0.0 0.00 0.01 0.00 80 1013.5
20260901100020 72 118 0.0 1.0 0.00 0.01 0.00 80 1013.5
20260901094517 73 226 0.0 1.0 0.00 0.01 0.00 80 1013.5
20260901093015 73 243 0.0 0.0 0.00 0.01 0.00 80 1013.5
20260901091512 73 221 0.0 1.0 0.00 0.01 0.00 80 1013.4
20260901090013 73 148 0.0 1.0 0.00 0.01 0.00 80 1013.2
20260901084509 73 207 0.0 2.0 0.00 0.01 0.00 80 1013.2
20260901083003 73 129 0.0 0.0 0.00 0.01 0.00 80 1013.1
20260901081501 74 169 0.0 2.0 0.00 0.01 0.00 80 1013.0
20260901080059 74 204 0.0 2.0 0.00 0.01 0.00 80 1012.9
20260901074558 74 127 0.0 3.0 0.00 0.01 0.00 80 1013.0
20260901073054 74 221 0.0 0.0 0.00 0.01 0.00 80 1013.1
20260901071552 74 164 0.0 0.0 0.00 0.01 0.00 80 1013.1
20260901070051 74 12 0.0 1.0 0.00 0.01 0.00 80 1013.1
20260901064547 75 212 0.0 4.0 0.00 0.01 0.00 80 1013.1
20260901063100 75 226 0.0 2.0 0.00 0.01 0.00 80 1013.1
20260901061552 75 123 0.0 3.0 0.00 0.01 0.00 80 1013.2
20260901060035 75 186 0.0 2.0 0.00 0.01 0.00 80 1013.3
20260901054533 75 162 0.0 1.0 0.00 0.01 0.00 80 1013.6
20260901053028 75 189 0.0 1.0 0.00 0.01 0.00 80 1013.8
20260901051532 75 116 0.0 1.0 0.00 0.01 0.00 80 1013.6
20260901050019 74 357 0.0 1.0 0.00 0.01 0.00 80 1013.6
20260901044515 74 226 0.0 3.0 0.00 0.01 0.00 80 1013.4
20260901043019 74 165 0.0 1.0 0.00 0.01 0.00 80 1013.4
20260901041509 74 158 0.0 2.0 0.00 0.01 0.00 80 1013.5
20260901040004 73 28 0.0 1.0 0.00 0.01 0.00 80 1013.6
20260901034600 73 223 0.0 1.0 0.00 0.01 0.01 80 1013.7
20260901033059 72 188 0.0 2.0 0.00 0.01 0.01 80 1013.8
20260901031600 72 229 0.0 0.0 0.00 0.01 0.01 80 1014.0
20260901030055 72 229 0.0 0.0 0.00 0.01 0.01 80 1013.9
20260901024555 73 229 0.0 0.0 0.00 0.01 0.01 80 1014.0
20260901023050 73 229 0.0 0.0 0.00 0.01 0.01 80 1014.1